OpenBCM V2.0.3 (Linux)

Packet Radio Mailbox

IZ3LSV

[San Dona' di P. JN]

 Login: GUEST





  
LU9DCE > KEP      05.01.20 18:06l 247 Lines 12119 Bytes #999 (0) @ WW
BID : 6710_LU9DCE
Read: GUEST
Subj: TLE 05 01
Path: IZ3LSV<IQ2LB<GB7COW<KE0GB<N7HPX<LU9DCE
Sent: 200105/1601Z 6710@LU9DCE.TOR.BA.ARG.SOAM LinBPQ6.0.19

            __    _  _  ___  ____   ___  ____    ____  ____  ____
           (  )  / )( \/ _ \(    \ / __)(  __)  (  _ \(  _ \/ ___)
           / (_/\) \/ (\__  )) D (( (__  ) _)    ) _ ( ) _ (\___ \
           \____/\____/(___/(____/ \___)(____)  (____/(____/(____/
               ESTACION DE PACKET RADIO - BUENOS AIRES (GF05OM)
                   BOLETINES INFORMATIVOS PROGRAMADOS (BIP)
                           LINUX - LU9DCE@GMX.COM
+----------------------------------------------------------------------------+
OSCAR 7
1  7530U 74089B   20004.92920057 -.00000028 +00000-0 +10900-3 0  9997
2  7530 101.7761 335.7528 0012138 322.3354 103.3494 12.53641508065370
OSCAR 11 (UoSAT 2)
1 14781U 84021B   20004.94344887 +.00000058 +00000-0 +13265-4 0  9993
2 14781 097.5982 025.0345 0009149 031.1110 329.0644 14.83132481907449
OSCAR 19 (LUSAT)
1 20442U 90005G   20005.42106668 -.00000002  00000-0  15866-4 0  9999
2 20442  98.6730 312.2975 0010679 279.3170  80.6806 14.32942064565120
EYESAT A
1 22825U 93061C   20004.39375056 -.00000013 +00000-0 +12832-4 0  9997
2 22825 098.9178 002.7376 0009144 132.8189 227.3762 14.30074803370221
ITAMSAT
1 22826U 93061D   20005.53798582 -.00000002  00000-0  17091-4 0  9998
2 22826  98.9118   3.8760 0009828 119.5072 240.7090 14.30409510370867
RADIO ROSTO
1 23439U 94085A   20004.77899398 -.00000030 +00000-0 +34650-3 0  9998
2 23439 064.8143 152.5552 0146046 074.0243 287.6715 11.27569366030459
JAS 2
1 24278U 96046B   20005.16126764 -.00000020  00000-0  12531-4 0  9997
2 24278  98.5651 136.6753 0351304  80.4288 283.6358 13.53095086154911
TECHSAT 1B
1 25397U 98043D   20004.84915939 -.00000017 +00000-0 +11780-4 0  9994
2 25397 098.7114 307.7571 0001686 136.6732 223.4579 14.23677110116133
ISS (ZARYA)
1 25544U 98067A   20005.58853759  .00001026  00000-0  26357-4 0  9993
2 25544  51.6453  77.9782 0005202 102.5065  46.3610 15.49539649206658
PCSAT
1 26931U 01043C   20004.87376033 -.00000044 +00000-0 +14814-4 0  9993
2 26931 067.0493 207.1070 0006808 263.2898 096.7428 14.30563531953531
SAUDISAT 1C
1 27607U 02058C   20005.49591869 -.00000014  00000-0  18768-4 0  9995
2 27607  64.5542 155.6557 0067547 216.6278 143.0197 14.75599822916660
CUTE-1
1 27844U 03031E   20005.01975640  .00000040  00000-0  37678-4 0  9990
2 27844  98.6835  15.2282 0010080 165.7986 194.3477 14.22214193856763
CUBESAT XI 4
1 27848U 03031J   20005.49143493  .00000028  00000-0  32681-4 0  9994
2 27848  98.6907  16.2304 0009800 176.0468 184.0788 14.21804466856679
MOZHAYETS 4
1 27939U 03042A   20005.53557141  .00000078  00000-0  22570-4 0  9992
2 27939  98.0660 142.7897 0013776 147.8208 212.3836 14.66828791869980
CUBESAT XI 5
1 28895U 05043F   20005.35352766  .00000084  00000-0  25034-4 0  9998
2 28895  97.9847 146.5627 0018046  79.7868 280.5369 14.63726592756830
CUTE-1.7+APD II
1 32785U 08021C   20005.50167807  .00000181  00000-0  25112-4 0  9992
2 32785  97.5606   0.8640 0012093 322.6017  37.4358 14.88399005633553
DELFI C3
1 32789U 08021G   20005.12356219  .00000859  00000-0  60717-4 0  9993
2 32789  97.4410  53.5047 0012961 153.4555 206.7339 15.07366961637153
SEEDS
1 32791U 08021J   20004.71032887 +.00000153 +00000-0 +20860-4 0  9994
2 32791 097.5331 006.2297 0011912 294.5397 065.4580 14.90945226633834
YUBELEINY
1 32953U 08025A   20005.53226507  .00000037  00000-0  19437-3 0  9991
2 32953  82.5036  19.8571 0020199  53.6585 306.6354 12.43093466527269
PRISM (HITOMI)
1 33493U 09002B   20005.08640158  .00000886  00000-0  82786-4 0  9999
2 33493  98.1318 298.7216 0013829 236.6909 123.2988 14.96860344595127
KKS-1 (KISEKI)
1 33499U 09002H   20005.13836459  .00000049  00000-0  15220-4 0  9992
2 33499  98.3322 215.0847 0007987 291.7932  68.2426 14.75493223588782
SWISSCUBE
1 35932U 09051B   20004.73951169 +.00000092 +00000-0 +31890-4 0  9990
2 35932 098.6000 181.7931 0006551 272.2737 087.7710 14.56345511545856
BEESAT
1 35933U 09051C   20005.48645869  .00000083  00000-0  29748-4 0  9990
2 35933  98.6011 184.3961 0004757 285.7620  74.3052 14.56427369546110
ITUPSAT 1
1 35935U 09051E   20005.45419186  .00000062  00000-0  25430-4 0  9991
2 35935  98.6121 184.5831 0007058 282.8504  77.1903 14.55579459545840
XIWANG-1 (HOPE-1)
1 36122U 09072B   20005.46385817 -.00000054  00000-0 -30871-4 0  9995
2 36122 100.0813   3.4662 0006620 248.2204 111.8205 13.16352613483291
TISAT 1
1 36799U 10035E   20005.45322104  .00000390  00000-0  45321-4 0  9992
2 36799  98.1760 169.5975 0013049 143.3779 216.8333 14.91240618514686
JUGNU
1 37839U 11058B   20005.21677984  .00000295  00000-0  15779-4 0  9995
2 37839  19.9591 198.7548 0018917  17.7436 138.2093 14.12668178425643
SRMSAT
1 37841U 11058D   20005.05435639  .00000295  00000-0  16587-4 0  9997
2 37841  19.9712 260.6671 0011845 237.2699 256.0293 14.10647141425017
M-CUBED/EXP-1 PRIME
1 37855U 11061F   20005.08899579  .00000936  00000-0  54326-4 0  9991
2 37855 101.7267   8.7289 0172110 202.5831 156.7743 15.05916567446935
HORYU 2
1 38340U 12025D   20005.40687049  .00000119  00000-0  25293-4 0  9999
2 38340  98.3053  54.7553 0011166 198.5915 161.4887 14.75794784410769
STRAND 1
1 39090U 13009E   20005.51499167  .00000025  00000-0  23808-4 0  9995
2 39090  98.4677 212.9140 0010083  56.0232 304.1910 14.35112635359199
SOMP
1 39134U 13015E   20004.85217277 +.00000964 +00000-0 +52457-4 0  9991
2 39134 064.8633 091.7417 0038074 271.0700 088.6066 15.20626706370649
BEESAT 3
1 39135U 13015F   20005.00312564  .00000847  00000-0  50709-4 0  9993
2 39135  64.8665 112.3995 0044417 272.5831  87.0211 15.17831091370641
BEESAT 2
1 39136U 13015G   20005.51215189  .00000847  00000-0  51943-4 0  9996
2 39136  64.8716 115.1886 0031014 280.2596  79.5033 15.17256407370631
CUBEBUG 1
1 39153U 13018D   20005.54677519  .00000153  00000-0  26822-4 0  9998
2 39153  97.9814 107.5968 0015587 267.0372  92.9056 14.80647994361531
ZACUBE
1 39417U 13066B   20005.48281748  .00000205  00000-0  31858-4 0  9995
2 39417  97.5612  12.6807 0060393  95.5252 265.2853 14.81201874330765
TRITON 1
1 39427U 13066M   20005.13771545  .00000101  00000-0  24375-4 0  9998
2 39427  97.7030 335.4245 0112380 243.5450 115.4192 14.67926287327745
GOMX 1
1 39430U 13066Q   20005.45730830  .00000180  00000-0  41837-4 0  9998
2 39430  97.7728 314.0619 0150955 341.8442  17.7395 14.59334354325885
HUMSAT D
1 39433U 13066T   20005.10553674  .00000185  00000-0  23260-4 0  9997
2 39433  97.5295  49.1480 0030400 354.6814   5.4078 14.92342313332964
CUBEBUG 2
1 39440U 13066AA  20005.02360975  .00000147  00000-0  27290-4 0  9991
2 39440  97.6157 356.7754 0080777 153.2824 207.2584 14.75938583329520
FUNCUBE 1
1 39444U 13066AE  20005.50648032  .00000243  00000-0  35938-4 0  9996
2 39444  97.5573  14.8264 0059517  88.5941 272.2090 14.82038876329675
UWE-3
1 39446U 13066AG  20005.49685826  .00000178  00000-0  30020-4 0  9992
2 39446  97.5880   4.4005 0071189 124.1162 236.6831 14.78473626328933
SPROUT
1 39770U 14029E   20005.36762236  .00000415  00000-0  51751-4 0  9997
2 39770  97.8915 112.4778 0009560 141.6408 218.5488 14.87562219304661
UNISAT 6
1 40012U 14033C   20004.93152476 +.00000123 +00000-0 +25637-4 0  9994
2 40012 097.7295 227.6088 0058450 170.2962 189.9391 14.74051901298180
DUCHIFAT 1
1 40021U 14033M   20004.84226240 +.00000212 +00000-0 +27368-4 0  9997
2 40021 097.9341 295.1772 0014173 107.8869 252.3896 14.90777931301366
QB50P1
1 40025U 14033R   20004.82434124 +.00000150 +00000-0 +21878-4 0  9992
2 40025 097.9113 289.2061 0013620 117.8126 242.4472 14.89047762300599
CHUBUSAT 1
1 40300U 14070C   20005.47286440  .00000370  00000-0  18970-4 0  9990
2 40300  97.3082  79.3784 0021194  70.8942 300.2955 15.22310409286561
NUDT-PHONESAT
1 40900U 15049B   20005.49346074  .00001557  00000-0  68197-4 0  9999
2 40900  97.4349  17.9098 0011932 193.0863 320.4986 15.23466399238228
ZDPS 2A
1 40901U 15049C   20005.55570666  .00000668  00000-0  36138-4 0  9995
2 40901  97.4618  13.5215 0012111 219.6077 269.0606 15.18009272237709
ZDPS 2B
1 40902U 15049D   20005.47229618  .00001003  00000-0  52730-4 0  9995
2 40902  97.4582  10.7832 0012157 216.9568 296.9225 15.17927166237660
XW-2A
1 40903U 15049E   20005.41143766  .00001460  00000-0  35602-4 0  9995
2 40903  97.3128  54.0754 0014532 133.1628 325.6658 15.42486633241185
KAITUO 1A
1 40904U 15049F   20005.47270619  .00000644  00000-0  37409-4 0  9990
2 40904  97.4726   9.1234 0013183 228.7738 284.2282 15.15559240237407
OBJECT G
1 40905U 15049G   20005.49965916  .00000074  00000-0  76084-5 0  9994
2 40905  97.4784   6.5002 0014291 224.6174 287.6161 15.14428268237267
XW-2C
1 40906U 15049H   20005.49721560  .00000339  00000-0  21151-4 0  9998
2 40906  97.4728   9.3298 0013536 218.5886 292.7381 15.15881277237419
XW-2D
1 40907U 15049J   20005.45012721  .00000373  00000-0  22824-4 0  9993
2 40907  97.4717   8.9705 0013032 215.2688 302.9306 15.16090148237423
LILACSAT 2
1 40908U 15049K   20005.47780361  .00000516  00000-0  32077-4 0  9998
2 40908  97.4856   7.5767 0014452 225.9238 285.8716 15.13929080237187
XW-2F
1 40910U 15049M   20005.47928015  .00000899  00000-0  47973-4 0  9996
2 40910  97.4658  11.3163 0013691 206.0386 306.8531 15.17631215237465
XW-2B
1 40911U 15049N   20005.49089406  .00000539  00000-0  31464-4 0  9990
2 40911  97.4728   9.6918 0012879 216.5513 294.6966 15.16019390237321
KAITUO 1B
1 40912U 15049P   20005.46710846  .00000831  00000-0  41745-4 0  9995
2 40912  97.4502  15.2566 0014463 185.6461 332.7401 15.19983374237809
TIANWANG 1C (TW-1C)
1 40926U 15051B   20005.53097297  .00011650  00000-0  14443-3 0  9994
2 40926  97.1102  56.6960 0006488 358.0505 107.9715 15.60176788241429
TIANWANG 1B (TW-1B)
1 40927U 15051C   20005.38075409  .00010595  00000-0  14131-3 0  9990
2 40927  97.1133  55.4819 0007377  11.2979  43.3313 15.58253014241225
